Location: Vale
(35.4830°N, 81.3830°W)
Time: 01:56:34
(UTC-04:00)

Cosmos 2237 Rocket - Visible Passes

Search period start: 02 May 2016 00:00
Search period end: 12 May 2016 00:00
Orbit: 836 x 849 km, 71.0° (Epoch: 01 May)

Date Brightness Start Highest point End Pass type
(mag) Time Alt. Az. Time Alt. Az. Time Alt. Az.
02 May 3.9 02:18:49 27° NNW 02:18:49 27° NNW 02:21:42 10° N visible
03 May 3.9 02:04:04 28° N 02:04:04 28° N 02:06:54 10° N visible
04 May 3.9 01:49:17 28° N 01:49:17 28° N 01:52:07 10° N visible
05 May 3.9 01:34:27 29° N 01:34:27 29° N 01:37:19 10° N visible
06 May 3.9 01:19:36 30° N 01:19:36 30° N 01:22:32 10° N visible
07 May 3.8 01:04:41 31° N 01:04:41 31° N 01:07:44 10° NNE visible
08 May 3.7 00:49:43 33° N 00:49:43 33° N 00:52:55 10° NNE visible
09 May 3.5 00:34:42 36° N 00:34:42 36° N 00:38:07 10° NNE visible
10 May 3.3 00:19:37 40° N 00:19:37 40° N 00:23:19 10° NNE visible
11 May 3.0 00:04:27 46° N 00:04:27 46° N 00:08:30 10° NNE visible
11 May 2.7 23:49:10 56° N 23:49:10 56° N 23:53:42 10° NNE visible
